Wind_Speed
14 15 18 17 18 16 14 14 12 12 12 13 15 18 18 17 18 21 23 21 20 17 20 23 23 20 20 20 18 16 16 16 16 17 17 18 18 22 22 26 29 27 29 27
21 18 16 17 19 17 16 16 15 15 15 17 19 20 20 19 20 22 21 21 21 25 25 25 25 22 19 21 22 20 19 19 20 22 22 24 25 26 25 25 25 26 27 28
20 20 26 24 22 19 18 17 17 19 20 21 23 21 21 20 19 20 21 23 25 27 28 28 27 23 20 20 21 25 25 23 23 23 26 27 28 29 31 30 33 31 30 33
31 29 28 22 22 21 21 19 21 22 24 24 24 22 20 21 22 24 26 27 28 29 30 28 26 26 26 27 26 26 26 27 27 27 28 30 30 32 34 34 35 36 31 33
33 28 24 15 18 20 21 20 24 26 26 25 22 21 22 24 24 24 24 25 27 29 30 31 31 30 31 30 30 31 30 30 30 31 31 33 34 33 34 34 34 34 35 33
24 25 24 17 19 21 22 22 27 26 26 25 23 24 25 24 24 24 25 27 29 31 32 32 31 30 31 32 33 33 34 35 36 35 34 34 36 38 37 38 37 34 33 35
24 25 25 19 20 22 21 24 23 26 26 27 27 27 26 24 23 25 29 31 32 33 33 32 31 30 30 32 34 35 36 37 38 38 41 41 40 41 41 41 41 40 38 32
25 25 25 22 23 24 25 24 25 26 28 29 30 29 28 26 26 30 31 31 32 32 32 31 31 30 31 33 35 36 37 38 39 41 43 45 48 49 48 48 45 41 38 37
25 25 24 22 23 24 24 25 27 29 31 32 32 31 28 27 30 32 35 34 33 31 30 31 32 31 31 32 34 35 36 37 39 40 41 42 43 44 46 45 48 47 39 35
25 24 24 24 25 27 28 29 30 31 33 33 33 32 30 29 32 33 33 34 34 32 31 32 33 33 34 33 34 35 38 39 40 39 40 41 41 41 43 43 42 41 40 38
25 24 26 27 28 29 31 33 34 33 34 33 33 34 34 35 36 35 35 34 34 34 32 33 33 34 36 37 38 39 39 40 40 41 41 40 39 38 38 38 37 34 32 35
25 26 27 28 29 31 32 34 34 34 33 32 33 34 35 36 36 35 35 36 37 36 35 35 35 34 37 39 40 40 41 40 41 40 39 39 41 37 36 35 35 31 29 29
28 28 29 31 32 33 35 36 37 37 38 38 36 36 36 36 36 36 37 38 37 36 36 37 38 38 40 40 40 39 39 38 39 39 40 40 40 38 36 38 39 34 30 29
30 31 33 35 36 37 38 38 38 38 39 40 40 39 38 38 38 39 39 38 36 34 34 36 37 38 41 41 41 41 40 38 38 40 42 42 42 41 39 36 36 37 32 30
34 36 38 38 38 39 40 39 37 36 36 37 37 37 37 38 38 39 39 38 36 34 35 37 39 40 40 40 40 39 40 40 40 43 43 43 43 43 42 39 35 36 34 30
37 38 40 40 40 39 37 36 36 36 37 36 35 35 36 36 35 35 35 37 37 35 38 41 41 42 42 42 41 40 40 39 39 40 41 40 42 44 44 42 38 35 34 31
36 37 37 35 34 33 33 32 31 31 32 33 33 33 33 33 34 36 37 38 38 39 42 42 42 43 42 42 42 40 41 43 43 44 42 40 40 39 39 37 34 32 34 32
32 31 29 28 28 29 29 30 31 31 30 31 32 33 35 35 36 37 37 39 41 41 41 41 43 43 43 43 45 41 43 43 43 43 41 38 38 40 40 38 34 32 32 32
28 28 27 27 27 28 29 29 30 30 30 32 33 33 35 36 37 38 39 39 39 40 42 43 44 45 44 45 42 42 40 40 39 36 35 33 31 30 30 31 31 31 31 32
27 26 27 27 27 26 26 26 24 25 28 30 31 32 34 36 37 38 39 40 41 41 42 44 46 45 43 42 44 37 37 34 33 32 32 32 31 30 28 30 31 30 30 32
25 24 23 23 24 25 25 26 28 30 31 32 33 34 35 36 37 39 41 42 42 41 42 43 43 42 39 41 39 35 32 32 29 29 30 31 30 30 28 27 27 27 29 31
24 25 26 27 27 27 28 30 30 31 31 34 34 35 37 37 38 39 40 39 39 39 41 42 40 40 39 37 33 30 30 27 26 26 26 26 24 24 25 26 26 25 27 31
26 26 27 30 32 34 33 34 30 28 28 29 31 33 35 38 40 39 38 38 38 39 39 37 35 32 33 29 26 27 27 24 22 21 22 23 22 22 22 20 22 25 26 27
33 35 35 32 33 34 31 26 27 28 30 32 33 34 34 35 36 37 39 38 37 36 35 30 29 29 26 25 25 24 23 20 19 20 22 24 20 18 19 20 20 23 25 26
35 37 37 36 31 29 25 24 25 28 30 31 29 29 30 32 33 34 34 32 30 27 24 22 21 23 24 25 23 21 21 18 17 18 19 18 17 15 16 17 18 20 22 25
37 37 36 31 28 24 20 22 25 26 25 24 25 25 25 26 27 29 29 25 21 16 18 19 18 21 22 21 22 22 19 16 14 19 19 19 16 12 16 19 18 18 22 24
30 29 29 25 23 22 21 22 25 21 20 21 20 18 18 20 22 23 27 24 20 17 16 17 14 15 19 20 15 13 15 17 18 19 15 14 12 13 10 12 16 17 19 21
Wind_Direction
282 283 278 286 278 277 278 279 277 277 288 293 295 299 299 290 285 283 284 285 284 280 299 306 309 302 303 308 304 302 297 291 287 294 293 287 282 286 256 246 252 245 236 235
268 270 281 281 273 270 274 276 275 279 283 287 289 292 289 280 277 274 277 279 278 279 288 293 296 293 297 295 294 292 287 287 287 284 281 282 286 283 279 273 254 249 245 237
249 265 277 281 266 268 269 270 273 279 286 288 287 284 279 272 270 267 267 271 277 280 285 289 290 290 294 297 296 288 283 281 280 281 282 281 279 282 286 287 287 275 256 242
264 273 272 265 266 266 270 274 277 282 284 284 283 278 274 272 273 277 280 285 288 289 292 296 296 296 296 296 295 290 285 285 283 279 279 281 283 284 285 291 295 285 273 245
276 276 274 267 267 268 270 274 277 279 282 283 280 275 273 275 277 281 290 296 298 298 296 294 292 290 291 290 287 288 286 282 282 282 283 285 285 284 286 286 285 285 289 286
277 278 279 265 267 270 273 276 274 280 280 279 279 280 279 278 280 286 293 297 297 296 296 294 290 286 283 283 285 284 284 285 285 285 283 282 284 285 284 284 281 281 285 285
274 274 274 274 269 270 272 268 275 277 279 282 285 286 283 280 282 288 292 292 294 297 297 295 291 287 284 282 280 281 281 281 281 281 281 281 279 279 279 278 280 282 280 281
271 272 273 275 270 269 268 268 272 275 278 281 284 283 281 281 286 289 291 294 299 303 302 296 291 288 285 283 282 281 280 279 277 276 276 276 278 280 278 277 277 275 276 279
273 275 276 274 272 269 268 272 277 280 282 280 279 276 273 280 289 292 293 292 295 297 296 293 289 285 283 282 282 283 283 282 279 277 277 277 278 278 279 279 276 276 273 272
270 273 273 273 271 271 274 278 280 282 281 280 276 274 274 278 283 284 287 288 290 293 295 293 292 290 289 288 287 286 287 288 287 287 286 284 282 281 280 281 280 274 269 266
266 267 264 266 269 272 275 279 280 281 282 281 278 274 273 275 283 286 286 289 290 291 293 292 291 290 291 291 290 292 292 291 289 288 286 283 280 281 282 282 282 279 270 262
267 267 268 270 273 275 278 279 279 279 281 278 275 273 274 276 280 284 288 292 293 293 293 293 292 293 293 293 294 295 294 292 289 287 283 281 281 281 281 284 287 287 280 266
269 271 274 278 281 283 283 283 283 284 283 282 280 278 279 282 286 289 290 291 290 290 292 292 294 297 296 295 296 295 293 291 287 285 280 280 278 279 277 281 287 288 281 272
273 277 281 283 284 283 282 284 285 285 284 284 283 282 283 284 285 287 288 289 289 289 288 289 293 294 295 295 295 293 292 291 289 285 284 282 277 277 278 276 278 280 277 272
274 279 281 281 281 282 283 285 285 283 284 284 283 282 282 282 284 286 287 287 287 286 286 290 291 292 294 293 292 289 289 289 287 284 281 278 277 275 275 275 273 273 274 266
277 278 280 280 281 282 281 281 283 284 284 285 284 283 282 282 284 285 286 287 286 285 289 291 292 291 295 294 293 292 291 287 292 294 284 278 276 274 273 272 269 268 268 259
276 278 280 281 279 278 279 282 284 286 287 287 288 288 290 291 291 289 288 288 290 291 292 292 291 291 294 295 295 291 293 289 291 295 287 279 275 274 274 272 267 266 264 253
277 278 281 281 280 281 283 285 285 286 287 289 290 290 290 291 292 292 290 292 293 293 291 292 291 293 295 295 297 291 293 292 293 293 288 284 277 273 271 270 266 263 259 247
277 279 280 281 281 281 284 286 288 291 293 295 297 296 295 294 293 292 292 292 292 290 291 291 291 295 296 296 296 296 293 294 293 289 286 282 280 276 272 267 262 260 251 242
277 278 278 279 283 291 294 296 296 301 303 301 299 296 294 292 292 292 292 293 293 294 294 293 292 293 294 295 297 294 294 291 289 286 285 283 277 273 272 264 259 258 242 235
276 280 286 290 295 295 296 300 301 304 305 304 302 299 298 297 297 296 294 294 295 294 295 295 295 294 292 295 293 292 289 289 287 285 289 288 279 273 264 259 253 254 243 238
279 279 283 289 292 295 299 303 306 305 303 301 300 301 301 302 304 303 301 299 297 297 296 296 295 293 293 291 289 287 289 287 287 289 293 293 280 270 262 253 246 247 244 238
269 273 278 282 287 294 301 305 306 304 304 304 305 306 308 307 305 304 304 303 301 297 298 297 295 293 293 291 286 285 284 284 286 293 296 295 285 274 264 252 244 240 241 240
271 277 282 289 294 296 299 298 297 296 299 302 303 303 305 308 309 309 309 306 304 300 297 295 292 292 293 290 286 285 284 283 286 292 297 298 283 273 255 244 245 237 239 239
272 278 283 291 294 297 294 298 300 300 299 298 304 307 309 310 313 316 317 313 306 303 303 300 297 297 295 288 283 285 285 282 286 290 297 297 288 276 257 246 247 243 234 235
275 279 285 289 290 286 292 301 307 306 309 312 310 309 316 322 324 325 327 325 318 304 315 319 315 320 321 311 286 276 274 275 278 301 295 287 272 284 266 253 243 241 236 233
279 283 283 281 275 281 285 303 311 304 305 308 311 314 324 332 337 348 354 347 342 327 320 322 327 332 339 334 326 297 275 267 279 293 288 301 292 290 268 247 242 239 233 232
Height
5897 5897 5897 5897 5897 5897 5898 5897 5898 5897 5896 5896 5895 5894 5893 5891 5889 5887 5884 5882 5881 5879 5877 5873 5871 5869 5866 5865 5863 5861 5860 5860 5859 5857 5857 5856 5856 5855 5854 5856 5856 5856 5855 5858
5892 5893 5893 5893 5893 5893 5893 5892 5892 5892 5892 5891 5890 5888 5887 5886 5884 5883 5880 5878 5877 5875 5872 5870 5868 5865 5862 5859 5858 5857 5856 5855 5854 5854 5855 5854 5854 5852 5852 5852 5851 5851 5849 5851
5888 5888 5887 5890 5889 5888 5888 5888 5887 5886 5886 5885 5883 5882 5881 5880 5879 5877 5875 5873 5871 5869 5867 5864 5862 5860 5858 5856 5854 5853 5851 5850 5850 5849 5848 5848 5848 5847 5847 5848 5847 5845 5843 5843
5882 5882 5881 5882 5882 5882 5881 5882 5880 5880 5878 5878 5876 5876 5875 5874 5873 5871 5869 5867 5865 5863 5860 5858 5856 5853 5851 5849 5847 5846 5845 5844 5844 5843 5843 5842 5841 5840 5839 5838 5839 5839 5837 5837
5873 5874 5875 5877 5875 5875 5874 5876 5873 5872 5871 5870 5870 5870 5869 5867 5865 5864 5862 5860 5858 5856 5854 5851 5849 5846 5843 5841 5840 5838 5837 5837 5837 5836 5835 5834 5833 5834 5833 5832 5830 5830 5830 5829
5867 5866 5866 5870 5869 5868 5867 5868 5865 5865 5864 5863 5863 5862 5861 5859 5858 5856 5855 5853 5851 5848 5846 5844 5842 5839 5837 5834 5831 5829 5830 5829 5827 5827 5828 5828 5826 5824 5824 5824 5824 5824 5823 5822
5860 5860 5860 5862 5862 5861 5862 5862 5859 5857 5856 5855 5855 5854 5853 5852 5851 5850 5848 5846 5843 5841 5838 5835 5832 5830 5829 5827 5823 5822 5820 5818 5817 5816 5815 5815 5816 5815 5814 5814 5814 5814 5815 5815
5853 5853 5854 5854 5854 5855 5853 5852 5851 5851 5849 5848 5847 5846 5845 5844 5844 5843 5840 5837 5835 5831 5828 5825 5822 5820 5818 5816 5814 5813 5811 5810 5808 5807 5805 5804 5802 5801 5801 5800 5802 5803 5805 5807
5847 5846 5846 5846 5846 5845 5845 5845 5844 5843 5842 5841 5840 5839 5838 5837 5835 5833 5831 5828 5826 5823 5820 5816 5814 5812 5811 5808 5806 5803 5801 5799 5797 5796 5796 5795 5793 5791 5789 5788 5789 5790 5795 5797
5838 5839 5838 5838 5838 5837 5837 5837 5836 5836 5834 5832 5831 5830 5830 5829 5828 5826 5823 5820 5817 5814 5811 5808 5804 5801 5799 5797 5794 5792 5789 5786 5785 5784 5783 5781 5780 5778 5777 5776 5775 5776 5778 5784
5830 5831 5831 5831 5831 5831 5830 5829 5828 5827 5825 5823 5822 5821 5821 5820 5818 5816 5813 5810 5808 5805 5802 5798 5796 5792 5788 5785 5782 5780 5778 5775 5772 5770 5768 5767 5766 5766 5764 5762 5762 5762 5763 5766
5823 5823 5823 5823 5823 5822 5821 5820 5818 5817 5815 5814 5812 5811 5810 5809 5807 5805 5802 5798 5796 5793 5790 5788 5785 5783 5779 5775 5771 5768 5765 5761 5759 5756 5754 5753 5751 5752 5751 5750 5749 5750 5750 5752
5814 5814 5814 5813 5813 5812 5810 5808 5806 5805 5803 5801 5801 5800 5799 5797 5795 5793 5791 5788 5785 5783 5779 5775 5772 5770 5765 5762 5759 5756 5752 5749 5746 5743 5741 5740 5739 5739 5740 5738 5736 5737 5738 5738
5805 5805 5804 5803 5802 5801 5798 5797 5796 5793 5791 5790 5788 5788 5787 5785 5783 5781 5778 5775 5773 5772 5769 5765 5763 5760 5755 5751 5747 5743 5740 5737 5734 5731 5729 5727 5726 5726 5726 5727 5726 5724 5725 5726
5796 5795 5794 5793 5791 5789 5787 5786 5784 5782 5781 5779 5777 5776 5775 5773 5772 5769 5766 5764 5762 5760 5757 5755 5752 5749 5745 5741 5737 5732 5728 5725 5721 5718 5715 5713 5711 5711 5711 5712 5713 5712 5713 5715
5786 5784 5782 5781 5780 5779 5776 5775 5774 5772 5770 5768 5767 5765 5764 5762 5760 5758 5755 5752 5750 5748 5745 5742 5739 5735 5732 5728 5724 5720 5716 5712 5708 5704 5701 5699 5697 5696 5696 5697 5699 5699 5700 5702
5775 5774 5772 5770 5769 5767 5766 5765 5763 5762 5760 5758 5756 5754 5752 5750 5748 5746 5743 5740 5738 5735 5731 5728 5725 5721 5718 5714 5710 5707 5703 5699 5695 5691 5687 5685 5683 5682 5682 5684 5685 5686 5686 5689
5765 5764 5763 5762 5760 5759 5758 5756 5755 5753 5751 5749 5747 5745 5742 5740 5737 5735 5731 5729 5726 5722 5718 5715 5711 5708 5704 5700 5695 5692 5689 5685 5681 5677 5674 5671 5669 5668 5668 5669 5672 5673 5673 5676
5755 5755 5754 5753 5752 5751 5749 5748 5746 5744 5742 5740 5737 5735 5732 5729 5726 5723 5719 5717 5713 5710 5707 5702 5698 5694 5691 5686 5682 5678 5675 5672 5667 5664 5661 5659 5657 5656 5656 5656 5658 5660 5661 5663
5746 5746 5745 5744 5744 5742 5741 5739 5737 5735 5734 5731 5729 5726 5723 5719 5715 5712 5708 5705 5700 5697 5693 5689 5685 5681 5677 5673 5668 5664 5662 5658 5656 5654 5650 5647 5646 5645 5645 5645 5646 5648 5651 5653
5738 5737 5737 5737 5737 5735 5733 5732 5730 5728 5725 5722 5719 5716 5712 5708 5705 5700 5696 5692 5687 5683 5679 5674 5671 5667 5664 5660 5655 5653 5650 5647 5645 5643 5640 5637 5635 5635 5635 5635 5637 5638 5641 5644
5731 5731 5731 5730 5728 5727 5726 5724 5722 5720 5717 5713 5709 5705 5701 5697 5693 5688 5683 5679 5675 5670 5666 5661 5657 5653 5650 5647 5644 5642 5640 5637 5635 5633 5630 5627 5626 5625 5626 5627 5628 5630 5632 5635
5725 5725 5724 5722 5721 5720 5718 5716 5713 5710 5707 5704 5700 5696 5692 5688 5683 5678 5672 5667 5662 5657 5654 5649 5645 5642 5639 5636 5635 5633 5631 5629 5627 5625 5623 5620 5618 5617 5617 5618 5620 5622 5624 5627
5717 5716 5715 5714 5713 5712 5710 5707 5705 5702 5699 5696 5692 5688 5683 5678 5673 5667 5661 5656 5651 5646 5642 5638 5635 5632 5630 5628 5626 5624 5622 5621 5619 5618 5616 5613 5611 5610 5610 5612 5613 5615 5617 5619
5708 5708 5707 5707 5706 5705 5702 5699 5697 5694 5691 5687 5684 5680 5676 5672 5666 5660 5653 5647 5641 5637 5632 5629 5627 5624 5622 5620 5617 5616 5614 5613 5612 5611 5610 5608 5606 5605 5605 5606 5607 5609 5611 5613
5700 5700 5699 5699 5698 5697 5695 5692 5690 5687 5684 5680 5677 5674 5671 5666 5661 5654 5647 5640 5635 5630 5627 5625 5622 5619 5614 5610 5607 5606 5606 5606 5606 5606 5604 5602 5600 5600 5599 5600 5601 5602 5605 5607
5691 5691 5690 5690 5690 5689 5687 5686 5684 5681 5678 5675 5673 5670 5666 5662 5657 5652 5644 5637 5631 5627 5624 5621 5618 5614 5611 5605 5601 5599 5599 5600 5600 5600 5598 5597 5596 5595 5594 5594 5595 5597 5599 5602